Helicity
68 73 41 64 92 55 50 56 51 36 59 73 85 77 51 113 93 67 92 115 68 22 -55 -31 -14 13 35 46 56 78 83 98 126 159 145 159 171 160 186 187 161 156 192 226
58 57 74 63 55 40 61 44 62 45 94 115 48 16 37 87 103 73 108 100 33 -31 -14 25 28 41 47 48 71 74 55 97 100 179 178 206 197 167 148 173 169 172 160 185
122 76 33 61 79 13 -34 -48 -6 30 34 28 0 -55 79 116 83 139 115 60 -3 -17 2 17 23 42 39 51 70 91 70 47 105 151 180 230 240 202 190 174 177 180 167 178
111 66 67 64 76 100 56 -31 -48 -35 -36 3 15 63 31 48 140 181 112 47 -2 -18 9 11 29 57 32 24 28 40 38 39 47 72 128 161 201 173 195 170 179 173 135 170
167 113 85 112 132 70 125 18 17 -4 10 -1 -14 15 35 44 114 89 60 22 -16 -21 -6 25 50 28 14 14 33 31 25 29 26 46 129 163 152 157 178 211 158 140 118 125
199 115 111 128 97 121 86 78 56 48 33 59 81 79 36 74 111 50 44 -28 -35 -21 -11 -27 -21 9 38 19 -12 -24 -1 46 13 16 94 149 129 176 185 184 183 162 119 111
102 143 142 135 97 88 94 99 90 83 72 73 21 53 86 55 84 73 -27 -42 -12 -16 -23 -13 5 38 55 54 29 20 11 21 20 39 69 118 144 157 150 171 170 166 134 133
168 129 202 121 159 144 122 120 120 117 101 60 27 40 18 72 114 58 30 -13 -63 -38 -14 -12 -15 -19 -3 13 -11 2 46 69 -1 0 36 88 92 99 110 135 161 153 140 127
150 159 140 151 117 114 109 143 105 147 112 85 88 43 60 106 88 58 40 -53 -66 -40 -29 -21 0 -25 -30 5 -10 36 40 64 31 11 17 88 95 97 81 66 111 109 114 142
149 125 133 136 97 87 120 56 113 129 129 118 128 118 79 63 51 62 28 -72 -61 -24 -40 -23 -7 1 -18 -3 12 36 32 52 48 66 34 75 65 30 40 69 72 79 90 102
134 154 120 129 152 148 113 105 115 120 164 189 184 152 113 115 80 56 39 -67 -51 -26 -29 -37 -30 -36 -32 -29 -1 -8 19 14 46 39 3 31 52 32 30 58 83 62 56 70
115 150 154 133 100 131 158 137 165 177 137 195 263 152 100 143 118 -8 -18 -60 -43 -22 -16 20 -15 -26 -22 -18 -17 -19 -1 46 40 59 76 14 -5 -33 -16 44 53 86 91 106
134 144 109 83 80 115 147 158 187 187 170 202 281 239 158 182 148 -4 -38 -38 -37 -2 10 20 12 3 -10 -10 -5 -1 -2 -6 62 116 88 119 139 129 147 -9 101 91 127 85
157 161 194 205 157 206 226 202 197 246 215 195 324 272 326 284 265 166 82 30 5 29 29 31 23 13 3 0 3 8 3 -5 23 66 49 103 137 159 62 113 120 89 102 22
164 184 200 154 164 152 192 201 242 362 347 228 171 194 227 207 215 204 121 88 86 50 30 36 28 34 26 25 22 23 10 10 -6 -4 65 74 49 78 236 201 194 184 145 191
190 149 131 127 82 105 177 179 195 239 264 267 223 160 139 107 97 110 111 166 140 39 40 43 48 57 46 39 36 32 31 26 12 6 11 20 49 54 106 127 236 166 318 206
234 176 138 110 63 70 41 56 112 186 243 235 228 238 126 101 122 123 131 143 139 137 80 31 64 51 48 48 46 47 39 39 39 33 31 21 5 52 43 70 55 78 66 67
247 218 163 135 54 63 88 129 119 181 104 246 184 194 192 163 119 101 137 164 151 142 148 134 46 -13 -35 -13 -3 -1 1 21 36 58 51 53 37 37 41 40 54 52 42 72
200 202 130 104 109 100 39 80 63 100 59 150 216 113 91 91 87 83 98 117 151 147 126 133 104 68 13 -18 -23 7 33 37 25 34 72 52 61 70 69 77 67 63 57 67
207 207 193 199 160 85 120 135 69 73 50 60 76 -64 17 88 56 65 48 66 74 94 124 174 172 133 111 70 58 49 39 45 45 15 37 30 32 57 88 87 75 58 54 57
229 193 219 183 179 94 122 112 100 55 25 97 84 -19 39 113 99 61 69 52 58 77 110 147 169 162 135 136 140 124 103 80 57 29 -22 43 41 64 56 76 87 79 91 99
197 198 204 183 234 78 150 142 99 90 60 108 144 110 84 62 63 103 92 82 91 104 130 156 165 133 124 143 156 155 138 124 102 82 62 13 25 59 68 68 57 62 64 59
270 205 171 178 186 234 141 148 134 198 152 138 163 134 115 129 96 85 116 141 121 117 141 161 160 134 124 135 140 134 110 144 152 154 130 109 116 115 100 84 72 68 71 61
298 289 318 203 174 159 192 192 207 199 154 169 192 161 149 153 151 105 97 98 137 134 142 167 192 165 131 139 133 110 127 125 140 145 154 160 162 152 140 137 123 111 103 99
335 329 320 290 198 200 149 107 118 89 84 84 113 133 164 158 145 142 128 123 124 141 169 185 197 180 149 151 127 123 140 157 142 138 143 156 159 161 154 147 126 119 103 91
441 420 446 331 229 228 163 119 120 83 99 67 54 39 67 136 145 160 137 140 133 132 169 202 213 184 177 190 161 138 141 159 158 165 162 163 169 158 146 134 132 115 95 96
Wind_Speed
20 20 15 14 39 50 61 65 71 70 68 72 77 79 75 76 74 75 56 58 66 74 75 78 76 79 81 81 79 84 83 88 76 75 79 79 80 81 83 79 77 78 75 73
28 20 17 14 16 10 39 63 64 64 59 65 69 76 74 73 68 62 42 54 66 73 78 78 80 80 81 84 86 85 86 86 76 61 71 75 74 78 81 81 79 79 80 78
35 25 18 24 23 13 4 6 15 54 59 62 67 79 75 73 42 29 39 48 61 68 74 78 79 81 83 85 82 80 85 86 79 56 61 63 70 76 80 82 82 79 81 81
38 33 31 30 29 27 18 17 17 34 43 54 44 59 54 40 14 25 40 54 63 66 69 71 73 78 82 80 76 80 83 82 79 55 41 46 64 77 77 79 79 77 79 82
39 38 39 36 36 33 32 20 14 20 29 36 48 48 48 19 19 31 42 52 58 59 61 68 71 74 77 74 73 75 73 72 72 59 39 38 45 60 65 74 79 87 83 84
24 26 31 38 29 27 21 25 23 29 30 31 37 40 42 15 17 33 44 50 51 55 59 61 64 65 64 67 69 69 68 64 62 60 40 35 35 53 64 68 77 84 84 84
34 35 33 35 41 40 38 36 41 38 34 29 25 29 37 17 12 25 47 47 49 49 51 56 54 51 47 58 62 64 61 57 52 52 44 47 39 45 55 71 73 76 83 85
43 48 39 37 39 41 41 44 48 48 42 29 29 23 20 17 16 17 28 43 36 40 51 50 45 45 51 54 60 58 60 60 48 53 49 33 32 40 50 63 74 77 80 82
37 36 32 32 34 37 42 43 40 37 32 33 28 19 20 19 16 17 31 42 36 18 49 45 48 54 55 53 51 38 61 61 22 14 57 33 29 35 40 48 71 75 75 76
31 33 30 30 30 28 33 31 41 39 46 44 31 23 13 13 9 15 41 41 36 16 36 45 48 53 55 54 60 74 44 64 62 56 36 13 10 15 22 40 73 81 77 75
25 31 30 28 30 32 32 34 33 33 34 40 40 31 26 20 6 22 35 45 38 23 21 44 47 51 55 58 65 65 75 72 66 52 52 36 5 6 15 34 67 84 86 81
26 30 28 25 24 27 25 24 27 34 36 29 34 31 30 27 20 44 49 50 45 26 17 37 47 43 49 56 62 61 70 62 70 58 54 46 42 21 22 31 63 65 71 75
32 31 34 36 29 22 19 19 20 25 25 23 35 34 29 28 22 38 49 41 39 18 12 41 47 50 50 56 60 65 68 66 69 63 58 48 48 46 20 10 46 50 48 58
28 28 23 23 25 28 21 16 11 13 19 24 13 20 29 27 16 18 32 27 10 20 31 39 45 47 49 53 58 61 63 66 68 66 56 53 51 40 37 25 25 40 52 60
28 29 25 13 13 11 11 7 2 6 8 8 19 16 15 10 4 13 21 20 1 29 35 37 46 46 48 51 54 57 59 61 63 66 58 55 47 46 28 26 17 21 18 9
27 32 36 28 26 22 18 7 1 7 11 18 20 26 20 5 10 16 15 19 12 10 24 20 33 38 43 46 50 51 54 56 58 59 59 56 48 44 40 32 29 29 17 18
31 35 43 38 36 34 25 28 14 14 8 7 2 4 5 9 17 18 14 12 11 14 17 14 22 30 32 36 39 44 46 48 51 52 52 52 48 35 39 36 29 26 27 24
29 34 38 42 50 42 36 30 24 14 10 6 8 16 5 6 6 3 5 7 9 12 14 17 18 19 18 10 9 16 25 35 39 44 44 44 43 42 38 34 33 33 33 27
22 30 39 39 47 42 36 31 30 30 27 3 7 13 10 5 16 3 7 4 5 9 13 15 17 18 18 19 19 22 27 32 35 37 39 35 36 38 38 35 31 33 31 30
23 28 36 43 45 49 42 39 31 31 36 23 14 12 8 16 7 3 26 29 15 8 10 11 14 15 15 16 18 20 23 28 31 32 32 31 30 32 35 35 33 34 32 33
38 37 35 37 41 41 32 30 29 40 39 37 23 22 25 18 7 28 32 32 24 13 12 11 12 12 12 13 16 17 19 20 24 28 30 26 30 31 32 33 31 30 29 29
43 43 46 41 44 53 22 30 33 37 49 49 39 32 28 19 17 16 16 17 21 17 15 10 12 13 15 12 14 15 14 15 18 22 25 27 27 28 29 29 29 29 27 27
63 47 53 39 45 40 27 37 40 48 61 63 56 54 51 38 34 26 19 13 9 8 8 13 12 13 12 10 12 14 12 11 13 15 16 19 21 24 26 26 27 29 30 29
67 57 65 65 58 54 51 48 52 57 52 68 60 60 54 42 40 35 29 19 13 11 10 7 9 13 15 15 14 13 16 11 12 11 12 14 16 20 22 26 26 26 26 28
72 61 67 76 76 72 64 54 54 55 66 68 62 63 63 57 36 35 36 29 24 19 15 12 13 12 12 11 11 15 17 12 13 14 15 15 18 19 23 26 28 29 32 32
77 81 83 92 82 77 82 68 68 68 68 72 83 90 81 67 62 38 42 44 36 28 24 20 18 18 15 11 11 10 10 9 13 18 17 16 18 21 23 26 30 33 32 33
Wind_Direction
82 56 40 24 359 323 306 297 290 287 286 282 278 276 278 280 281 282 292 294 296 298 303 303 305 307 307 305 302 296 292 289 284 277 270 265 262 260 257 254 251 250 247 243
59 54 53 49 25 10 336 302 296 295 288 286 281 276 280 280 280 289 296 300 301 300 299 300 303 307 309 305 298 295 290 288 287 279 274 265 262 260 258 255 252 250 248 244
54 59 51 52 43 55 128 161 321 296 292 286 282 274 279 281 278 293 307 310 308 304 302 301 304 307 312 305 303 302 295 285 287 283 276 267 262 261 257 254 252 250 248 246
63 68 59 57 55 63 70 122 179 232 246 251 273 250 281 302 297 301 310 310 308 308 310 310 309 307 313 314 308 302 292 282 276 286 274 264 262 259 256 255 253 252 251 248
60 60 56 56 68 69 79 100 143 178 204 223 213 237 258 324 313 308 313 313 306 309 317 313 311 311 311 314 308 305 301 282 278 284 277 267 262 262 259 255 254 252 254 252
66 74 66 69 70 82 87 88 106 131 150 180 176 166 239 344 329 312 316 294 294 307 316 316 318 313 311 314 309 302 298 284 285 282 288 272 258 264 259 256 253 253 254 254
53 68 79 77 67 82 86 84 93 105 119 139 167 133 206 11 33 343 282 284 305 300 301 314 313 309 303 309 311 310 311 303 307 303 297 283 273 262 260 255 254 253 254 254
56 59 72 79 74 75 79 84 83 85 89 98 119 123 109 102 62 70 355 310 257 279 306 306 300 303 310 311 310 303 300 289 324 308 304 296 279 271 263 257 253 253 255 255
58 62 78 79 80 82 77 80 86 86 93 82 98 110 76 68 60 67 342 276 258 221 303 299 307 318 319 318 323 311 325 319 360 343 297 303 289 277 267 261 254 254 256 258
66 55 71 78 78 93 86 83 76 80 69 65 73 73 89 128 84 24 310 245 246 199 278 304 315 325 328 325 331 354 322 354 350 322 337 324 228 236 259 263 257 253 256 257
67 64 64 70 76 74 76 73 80 75 76 62 55 60 67 79 59 335 320 244 240 211 228 306 312 327 337 338 352 345 359 360 352 326 336 338 36 188 290 271 261 250 250 254
69 58 48 61 79 74 75 73 75 62 60 63 53 51 63 62 66 298 285 245 244 203 189 20 326 311 323 337 346 344 356 348 3 351 1 347 2 181 182 287 262 260 259 257
53 50 37 48 64 74 76 84 78 62 56 52 49 48 61 56 55 242 244 213 214 180 81 348 334 337 328 341 351 357 1 360 4 360 359 345 349 2 66 326 275 271 264 259
52 41 39 32 32 41 40 53 89 90 52 42 44 27 46 53 60 175 210 196 158 351 342 335 330 323 328 341 352 355 360 6 24 12 3 357 356 350 6 351 335 262 246 246
42 23 22 357 320 309 307 307 121 173 177 47 33 30 29 28 326 233 223 208 204 327 323 324 314 325 334 337 346 357 359 6 11 19 11 7 1 7 346 344 320 332 15 12
26 18 13 7 25 27 3 345 280 221 221 236 252 265 260 200 100 90 107 112 143 186 327 337 333 335 334 340 341 354 1 7 13 15 19 18 6 7 4 359 4 9 349 5
8 9 10 11 18 3 32 32 45 43 71 180 230 228 54 51 56 55 72 102 124 128 147 164 335 336 345 350 355 358 1 2 5 9 9 11 8 351 3 2 6 2 16 22
0 3 3 357 2 10 17 22 28 28 39 175 224 221 222 13 18 247 84 90 134 139 128 127 130 142 143 105 90 99 77 44 43 17 356 1 5 6 2 6 8 9 13 10
358 358 356 358 353 348 9 21 20 14 12 20 176 204 233 265 3 324 35 148 126 105 138 136 123 122 116 110 97 69 52 47 45 43 2 335 353 4 7 0 357 7 10 15
350 350 345 349 348 348 353 0 11 11 359 31 57 41 33 39 33 331 7 0 22 65 50 66 68 64 68 83 70 62 56 49 47 52 35 303 318 349 2 8 4 15 16 20
337 334 323 326 334 338 338 351 8 353 357 349 358 2 8 8 6 1 354 353 360 11 9 19 19 24 33 43 39 36 44 54 62 71 85 326 303 349 9 10 4 7 8 8
319 325 326 328 326 332 359 358 340 344 336 331 330 333 337 336 337 340 343 347 350 349 348 348 345 346 353 9 11 14 24 40 51 61 77 87 56 18 11 10 11 13 12 11
307 307 316 310 315 329 322 321 321 323 319 316 316 314 318 322 324 325 319 314 307 325 328 326 322 326 331 335 340 345 1 27 28 30 41 42 34 25 16 11 4 357 354 358
300 298 298 309 310 301 307 304 308 311 307 308 307 304 306 308 313 314 315 307 290 255 263 272 300 305 307 310 316 324 335 347 353 356 356 357 358 354 351 349 352 353 352 350
294 302 303 299 299 305 301 302 309 311 310 306 307 304 301 302 303 307 307 302 296 283 276 261 257 262 272 286 287 307 314 318 324 325 326 328 329 330 332 332 332 333 331 331
290 289 292 295 302 300 301 305 305 306 306 303 298 292 293 297 300 300 301 302 301 295 290 277 262 246 261 251 258 271 286 287 305 309 310 313 314 317 321 324 326 328 331 331